www.pogodaiklimat.ru

Погода и климат >> Архив погоды >> Австралия >> Новый Южный Уэльс >> Фоулерс Гэп


ПОГОДА в Фоулерс Гэп

  • Прогноз погоды в Фоулерс Гэп
  • Монитор погоды в Фоулерс Гэп

АРХИВ ПОГОДЫ в Фоулерс Гэп

Время (UTC), дата Ветер
(напр.,м/с)
 
Видим.   Явления Облачность Т
(С)
Тd
(С)
f
(%)
Тe
(С)
Тes
(С)
Комфортность P
(гПа)
Po
(гПа)
Тmin
(С)
Tmax
(С)
R
(мм)
R24
(мм)
S
(см)
19 18.08 З 5 н/о н/о +5.1 +1.4 77 +1 +1 1023.3 1001.5
20 18.08 З 2 н/о н/о +4.5 +1.4 80 +2 +2 1024.2 1002.3
22 18.08 ЮЗ 4 н/о н/о +4.7 +1.0 77 +1 +1 1026.6 1004.7
23 18.08 ЮЗ 6 н/о н/о +7.8 +1.4 64 +4 +4 1027.7 1005.8
01 19.08 Ю 8 н/о н/о +11.8 -1.7 39 +9 +9 1028.8 1006.8
02 19.08 Ю 8 н/о н/о +12.6 -2.8 34 +10 +10 1028.3 1006.4 +3.6
04 19.08 Ю 6 н/о н/о +14.5 -3.8 28 +13 +13 1027.8 1005.9
05 19.08 Ю 6 н/о н/о +14.8 -4.0 27 +13 +13 1027.5 1005.6
07 19.08 ЮЗ 6 н/о н/о +14.7 -3.1 29 +13 +13 1027.7 1005.8
08 19.08 Ю 4 н/о н/о +13.8 -3.9 29 +13 +13 1028.6 1006.6
10 19.08 ЮЗ 2 н/о н/о +10.2 -4.6 35 +9 +9 1030.2 1008.2
11 19.08 штиль 0 н/о н/о +8.8 -4.7 38 +9 +9 1031.0 1009.0
13 19.08 СЗ 3 н/о н/о +7.3 -3.8 45 +5 +5 1032.0 1010.0
14 19.08 ЮЗ 1 н/о н/о +5.8 -4.6 47 +5 +5 1031.9 1009.9 +15.6
16 19.08 З 2 н/о н/о +4.7 -4.6 51 +3 +3 1031.6 1009.6
17 19.08 ЮЗ 3 н/о н/о +5.5 -3.6 52 +3 +3 1031.3 1009.3
19 19.08 Ю 2 н/о н/о +4.1 -2.7 61 +2 +2 1031.0 1009.0
20 19.08 ЮЗ 2 н/о н/о +4.7 -1.1 66 +3 +3 1031.8 1009.8
22 19.08 СЗ 2 н/о н/о +4.8 -1.6 63 +2 +2 1033.6 1011.5
23 19.08 ЮЗ 2 н/о н/о +8.2 +0.4 58 +7 +7 1034.0 1011.9
01 20.08 ЮЗ 3 н/о н/о +13.4 +2.9 49 +12 +12 1034.1 1012.0
02 20.08 ЮЗ 3 н/о н/о +14.7 +1.3 40 +14 +14 1033.3 1011.2 +2.7
04 20.08 ЮЗ 6 н/о н/о +16.2 +0.7 35 +15 +15 1031.5 1009.5
05 20.08 ЮЗ 5 н/о н/о +17.1 +1.1 34 +16 +16 1030.5 1008.5
07 20.08 З 7 н/о н/о +16.4 +1.3 36 +15 +15 1030.0 1008.0
08 20.08 ЮЗ 5 н/о н/о +15.5 +1.3 38 +14 +14 1029.9 1007.9
10 20.08 З 4 н/о н/о +12.2 +0.6 45 +11 +11 1030.3 1008.3
11 20.08 СЗ 3 н/о н/о +10.7 -0.1 47 +9 +9 1030.2 1008.2
13 20.08 З 3 н/о н/о +9.1 0.0 53 +7 +7 1030.2 1008.2
14 20.08 ЮЗ 5 н/о н/о +9.2 +0.9 56 +6 +6 1030.2 1008.2 +17.8
16 20.08 З 4 н/о н/о +7.8 +1.6 65 +5 +5 1029.7 1007.7
17 20.08 ЮЗ 4 н/о н/о +6.7 +1.4 69 +4 +4 1029.0 1007.0
19 20.08 З 3 н/о н/о +6.1 +2.0 75 +3 +3 1028.9 1006.9
20 20.08 ЮЗ 4 н/о н/о +6.9 +3.0 76 +3 +3 1029.0 1007.0
22 20.08 ЮЗ 2 н/о н/о +7.0 +2.9 75 +5 +5 1029.8 1007.8
23 20.08 ЮЗ 4 н/о н/о +10.5 +4.2 65 +8 +8 1030.0 1008.0
01 21.08 Ю 5 н/о н/о +15.4 +5.6 52 +14 +14 1029.6 1007.6
02 21.08 Ю 6 н/о н/о +17.2 +5.5 46 +16 +16 1028.8 1006.8 +5.0
04 21.08 ЮЗ 5 н/о н/о +19.3 +3.9 36 +19 +19 1026.6 1004.7
05 21.08 Ю 6 н/о н/о +19.5 +3.2 34 +20 +20 1026.2 1004.3
07 21.08 ЮЗ 7 н/о н/о +20.1 +2.9 32 +20 +20 1025.6 1003.7
08 21.08 З 6 н/о н/о +18.6 +3.3 36 +18 +18 1025.8 1003.9
10 21.08 ЮЗ 3 н/о н/о +14.7 +2.6 44 +14 +14 1026.3 1004.4
11 21.08 З 4 н/о н/о +13.5 +2.4 47 +12 +12 1026.6 1004.7
13 21.08 ЮЗ 4 н/о н/о +11.4 +2.2 53 +10 +10 1026.4 1004.5
14 21.08 ЮЗ 4 н/о н/о +11.1 +2.7 56 +9 +9 1026.6 1004.7 +20.5
16 21.08 Ю 6 н/о н/о +12.4 +6.0 65 +10 +10 1026.8 1004.9
17 21.08 Ю 6 н/о н/о +12.1 +6.6 69 +9 +9 1026.3 1004.4
19 21.08 Ю 6 н/о н/о +10.9 +7.6 80 +8 +8 1026.5 1004.6
20 21.08 Ю 6 н/о н/о +10.2 +7.8 85 +7 +7 1026.8 1004.9
22 21.08 Ю 8 н/о н/о +11.2 +7.7 79 +8 +8 1027.8 1005.9
23 21.08 Ю 9 н/о н/о +12.7 +7.2 69 +10 +10 1028.5 1006.5
01 22.08 Ю 7 н/о н/о +15.5 +6.0 53 +14 +14 1028.7 1006.7
02 22.08 Ю 6 н/о н/о +16.9 +4.6 44 +16 +16 1027.7 1005.8 +9.3
04 22.08 Ю 5 н/о н/о +17.3 +3.2 39 +17 +17 1025.9 1004.0
05 22.08 ЮЗ 5 н/о н/о +18.2 +3.3 37 +18 +18 1025.4 1003.5
07 22.08 Ю 6 н/о н/о +18.9 +2.3 33 +19 +19 1025.2 1003.3
08 22.08 Ю 6 н/о н/о +17.7 +3.2 38 +17 +17 1025.4 1003.5
10 22.08 Ю 3 н/о н/о +13.9 +3.1 48 +13 +13 1026.3 1004.4
11 22.08 Ю 3 н/о н/о +11.6 +2.1 52 +10 +10 1026.8 1004.9
13 22.08 Ю 4 н/о н/о +10.6 +3.2 60 +9 +9 1026.8 1004.9
14 22.08 Ю 4 н/о н/о +10.0 +3.5 64 +8 +8 1026.5 1004.6 +19.7
16 22.08 Ю 4 н/о н/о +8.5 +3.4 70 +6 +6 1026.0 1004.1
17 22.08 Ю 3 н/о н/о +8.5 +3.6 71 +6 +6 1025.8 1003.9
19 22.08 Ю 4 н/о н/о +7.5 +3.4 75 +4 +4 1026.1 1004.2
20 22.08 Ю 5 н/о н/о +7.7 +3.7 76 +4 +4 1026.4 1004.5
22 22.08 З 2 н/о н/о +7.4 +3.6 77 +6 +6 1027.5 1005.6
23 22.08 В 3 н/о н/о +11.3 +4.3 62 +10 +10 1027.6 1005.7
01 23.08 СВ 5 н/о н/о +14.9 +3.7 47 +14 +14 1027.0 1005.1
02 23.08 В 4 н/о н/о +15.7 +3.5 44 +15 +15 1025.9 1004.0 +5.5
04 23.08 В 3 н/о н/о +18.3 +1.8 33 +19 +19 1023.1 1001.3
05 23.08 СВ 3 н/о н/о +19.0 +1.1 30 +19 +19 1022.3 1000.5
07 23.08 З 1 н/о н/о +19.5 -1.0 25 +21 +21 комфорт 1021.8 1000.0
08 23.08 штиль 0 н/о н/о +18.6 -1.8 25 +19 +19 1022.1 1000.3
10 23.08 штиль 0 н/о н/о +12.7 -4.0 31 +13 +13 1022.3 1000.5
11 23.08 штиль 0 н/о н/о +10.9 -4.3 34 +11 +11 1022.6 1000.8
13 23.08 штиль 0 н/о н/о +7.9 -5.2 39 +8 +8 1022.1 1000.3
14 23.08 штиль 0 н/о н/о +6.9 -6.1 39 +7 +7 1021.5 999.7 +20.1
16 23.08 СЗ 1 н/о н/о +5.9 -5.1 45 +7 +7 1020.5 998.7
17 23.08 З 1 н/о н/о +5.2 -6.0 44 +6 +6 1020.0 998.2
19 23.08 ЮЗ 3 н/о н/о +4.2 -6.1 47 +2 +2 1019.7 997.9
20 23.08 Ю 1 н/о н/о +2.6 -6.8 50 +3 +3 1019.9 998.1
22 23.08 ЮЗ 1 н/о н/о +5.2 -6.0 44 +6 +6 1020.7 998.9
23 23.08 С 1 н/о н/о +12.2 -3.6 33 +13 +13 1020.6 998.8
01 24.08 З 6 н/о н/о +19.0 -0.4 27 +19 +19 1020.3 998.5
02 24.08 СЗ 7 н/о н/о +20.2 -0.4 25 +20 +20 1019.3 997.5 +2.5
04 24.08 СЗ 6 н/о н/о +22.3 -2.4 19 +21 +21 комфорт 1016.9 995.2
05 24.08 СЗ 6 н/о н/о +22.3 -3.1 18 +21 +21 комфорт 1016.3 994.6
07 24.08 З 7 н/о н/о +22.4 -4.6 16 +21 +21 комфорт 1016.2 994.5
08 24.08 З 6 н/о н/о +20.7 -4.4 18 +20 +20 1016.7 995.0
10 24.08 З 3 н/о н/о +15.3 -4.6 25 +15 +15 1017.7 996.0
11 24.08 штиль 0 н/о н/о +13.6 -4.5 28 +14 +14 1018.0 996.3
13 24.08 штиль 0 н/о н/о +10.9 -5.5 31 +11 +11 1017.8 996.1
14 24.08 Ю 7 н/о н/о +15.0 -2.9 29 +13 +13 1018.3 996.6 +23.3
16 24.08 Ю 8 н/о н/о +13.1 +6.2 63 +10 +10 1018.8 997.1
17 24.08 Ю 8 н/о н/о +12.2 +6.5 68 +9 +9 1018.9 997.2
19 24.08 ЮВ 10 н/о н/о +10.5 +4.0 64 +7 +7 1019.8 998.0
20 24.08 ЮВ 9 н/о н/о +9.6 +3.8 67 +5 +5 1020.4 998.6
22 24.08 ЮВ 8 н/о н/о +9.3 +3.3 66 +5 +5 1022.2 1000.4
23 24.08 ЮВ 9 н/о н/о +10.9 +3.2 59 +7 +7 1023.0 1001.2
01 25.08 ЮВ 8 н/о н/о +13.6 +0.9 42 +11 +11 1023.4 1001.6
02 25.08 ЮВ 7 н/о н/о +14.8 -1.3 33 +13 +13 1023.0 1001.2 +8.8
04 25.08 ЮВ 6 н/о н/о +16.6 -2.0 28 +16 +16 1021.5 999.7
05 25.08 Ю 6 н/о н/о +16.7 -1.9 28 +16 +16 1021.1 999.3
07 25.08 Ю 6 н/о н/о +16.0 -3.5 26 +15 +15 1021.3 999.5
08 25.08 Ю 7 н/о н/о +14.8 -4.0 27 +13 +13 1022.0 1000.2
10 25.08 Ю 5 н/о н/о +12.2 -4.0 32 +10 +10 1023.5 1001.7
11 25.08 Ю 5 н/о н/о +10.6 -4.6 34 +8 +8 1024.0 1002.1
13 25.08 Ю 4 н/о н/о +8.6 -4.6 39 +6 +6 1024.7 1002.8
14 25.08 Ю 3 н/о н/о +7.5 -4.2 43 +6 +6 1024.6 1002.7 +17.7
16 25.08 Ю 4 н/о н/о +6.9 -3.9 46 +4 +4 1024.1 1002.2
17 25.08 ЮВ 3 н/о н/о +5.8 -3.8 50 +3 +3 1024.3 1002.4

 

Местоположение метеостанции Фоулерс Гэп (Новый Южный Уэльс, Австралия): широта -31.08 долгота 141.70 высота над уровнем моря 181 м.

В архиве по умолчанию представлена погода в Фоулерс Гэп за последнюю неделю. Архивные данные за месяц целиком и за предыдущие месяцы, начиная с января 2011 года, Вы можете получить, выбрав интересующий диапазон дат из раскрывающегося списка и нажав кнопку "Ввод!".


*Определитесь, кто Вы:
робот инопланетянин человек

Внимание! Время в таблицах - всемирное. Для получения местного времени необходимо прибавить поправку, которая равна 10 ч.

Смотрите также архив погоды в соседних городах и на ближайших метеорологических станциях:

Погода в Брокен-Хилл аэропорту (Новый Южный Уэльс, Австралия) (105 км)
Погода в Уафт Клифс (Новый Южный Уэльс, Австралия) (133 км)
Погода в Уилкании (Новый Южный Уэльс, Австралия) (167 км)
Погода в Тибообере (Новый Южный Уэльс, Австралия) (184 км)
Погода в Юнте (Южная Австралия, Австралия) (261 км)
Погода в Ли-Крике (Южная Австралия, Австралия) (318 км)
Погода в Айванхо (Новый Южный Уэльс, Австралия) (318 км)
Погода в Милдьюре (Новый Южный Уэльс, Австралия) (352 км)
Погода в Ренмарке (Южная Австралия, Австралия) (360 км)
Погода в Мумбе (Южная Австралия, Австралия) (362 км)

Пояснения к столбцам:

Ветер - указаны скорость ветра в м/с - средняя за 10 мин, порывы в срок и между сроками (в фигурных скобках) и направление, откуда дует ветер: С - северный, СВ - северо-восточный, В - восточный, ЮВ - юго-восточный, Ю - южный, ЮЗ - юго-западный, З - западный, СЗ - северо-западный.
Видимость - горизонтальная дальность видимости в метрах или километрах. При видимости от 1 до 10 км при отсутствии осадков обычно наблюдается дымка, при ухудшении видимости до 1 км и менее - туман. В сухую погоду видимость может ухудшаться дымом, пылью или мглою.
Явления - указаны атмосферные явления, наблюдавшиеся в срок или в последний час перед сроком; фигурными скобками обозначены явления, наблюдавшиеся между сроками (за 1-3 часа до срока); квадратными скобками обозначены град или гололедные отложения с указанием их диаметра в мм.
Облачность - указаны через наклонную черту общая и нижняя облачность в баллах и высота нижней границы облаков в метрах; квадратными скобками обозначены формы облаков: Ci - перистые, Cs - перисто-слоистые, Cc - перисто-кучевые, Ac - высококучевые, As - высокослоистые, Sc - слоисто-кучевые, Ns - слоисто-дождевые, Cu - кучевые, Cb - кучево-дождевые. Подробнее классификацию облаков см. в Атласе облаков (PDF).
T - Температура воздуха - температура, измеренная на высоте 2 м над землей.
Td - Температура точки росы - температура, при понижении до которой содержащийся в воздухе водяной пар достигнет насыщения.
f - Относительная влажность воздуха - влажноcть воздуха, измеренная на высоте 2 м над землей.
Te - Эффективная температура - температура, которую ощущает одетый по сезону человек в тени. Характеристика душности погоды. При расчете учитывается влияние влажности воздуха и скорости ветра на теплоощущения человека.
Tes - Эффективная температура на солнце - температура, которую ощущает человек, с поправкой на солнечный нагрев. Характеристика знойности погоды. Зависит от высоты солнца над горизонтом, облачности и скорости ветра. Ночью, в пасмурную погоду, а также при ветре 12 м/с и более поправка равна нулю.
P - Атмосферное давление - приведенное к уровню моря атмосферное давление.
Po - Атмосферное давление - измеренное на уровне метеостанции атмосферное давление.
Tmin - Минимальная температура - минимум температуры воздуха на высоте 2 м над землей.
Tmax - Максимальная температура - максимум температуры воздуха на высоте 2 м над землей.
R - Количество осадков - Количество выпавших осадков за период времени, мм. При наведении курсора мыши на число - период времени, за который выпало указанное количество осадков.
R24 - Количество осадков - Количество выпавших осадков за 24 часа, мм.
S - Снежный покров - Высота снежного покрова, см. При наведении курсора мыши на число - состояние снежного покрова и степень покрытия местности в баллах.